Time,TemperatureF,DewpointF,PressureIn,WindDirection,WindDirectionDegrees,WindSpeedMPH,WindSpeedGustMPH,Humidity,HourlyPrecipIn,Conditions,Clouds,dailyrainin,SolarRadiationWatts/m^2,SoftwareType,DateUTC
2013-09-29 00:02:00,-999.0,-99.9,-100.00,East,85,0.0,1.0,-999,-99.99,,,-99.99,0.000000,,2013-09-29 04:02:00,
2013-09-29 00:10:00,54.0,50.0,-100.00,ESE,119,0.0,0.0,85,0.00,,,0.00,0.000000,,2013-09-29 04:10:00,
2013-09-29 00:44:00,54.0,50.0,-100.00,ESE,119,0.0,0.0,85,0.00,,,0.00,0.000000,,2013-09-29 04:44:00,
2013-09-29 00:54:00,54.0,50.0,-100.00,ESE,119,0.0,0.0,85,0.00,,,0.00,0.000000,,2013-09-29 04:54:00,
2013-09-29 01:03:00,54.0,50.0,-100.00,ESE,119,0.0,0.0,85,0.00,,,0.00,0.000000,,2013-09-29 05:03:00,
2013-09-29 01:10:00,53.0,49.0,-100.00,SSW,208,1.0,1.0,85,0.00,,,0.00,0.000000,,2013-09-29 05:10:00,
2013-09-29 01:43:00,53.0,49.0,-100.00,SSW,208,1.0,1.0,85,0.00,,,0.00,0.000000,,2013-09-29 05:43:00,
2013-09-29 01:53:00,53.0,49.0,-100.00,SSW,208,1.0,1.0,85,0.00,,,0.00,0.000000,,2013-09-29 05:53:00,
2013-09-29 02:03:00,53.0,49.0,-100.00,SSW,208,1.0,1.0,85,0.00,,,0.00,0.000000,,2013-09-29 06:03:00,
2013-09-29 02:10:00,52.0,48.0,-100.00,NNE,28,2.0,2.0,86,0.00,,,0.00,0.000000,,2013-09-29 06:10:00,
2013-09-29 02:42:00,52.0,48.0,-100.00,NNE,28,2.0,2.0,86,0.00,,,0.00,0.000000,,2013-09-29 06:42:00,
2013-09-29 02:52:00,52.0,48.0,-100.00,NNE,28,2.0,2.0,86,0.00,,,0.00,0.000000,,2013-09-29 06:52:00,
2013-09-29 03:02:00,52.0,48.0,-100.00,NNE,28,2.0,2.0,86,0.00,,,0.00,0.000000,,2013-09-29 07:02:00,
2013-09-29 03:10:00,53.0,49.0,-100.00,North,1,0.0,3.0,85,0.00,,,0.00,0.000000,,2013-09-29 07:10:00,
2013-09-29 03:43:00,53.0,49.0,-100.00,North,1,0.0,3.0,85,0.00,,,0.00,0.000000,,2013-09-29 07:43:00,
2013-09-29 03:52:00,53.0,49.0,-100.00,North,1,0.0,3.0,85,0.00,,,0.00,0.000000,,2013-09-29 07:52:00,
2013-09-29 04:02:00,53.0,49.0,-100.00,North,1,0.0,3.0,85,0.00,,,0.00,0.000000,,2013-09-29 08:02:00,
2013-09-29 04:10:00,53.0,51.0,-100.00,NW,324,3.0,4.0,93,0.00,,,0.00,0.000000,,2013-09-29 08:10:00,
2013-09-29 04:42:00,53.0,51.0,-100.00,NW,324,3.0,4.0,93,0.00,,,0.00,0.000000,,2013-09-29 08:42:00,
2013-09-29 04:52:00,53.0,51.0,-100.00,NW,324,3.0,4.0,93,0.00,,,0.00,0.000000,,2013-09-29 08:52:00,
2013-09-29 05:02:00,53.0,51.0,-100.00,NW,324,3.0,4.0,93,0.00,,,0.00,0.000000,,2013-09-29 09:02:00,
2013-09-29 05:10:00,53.0,50.0,-100.00,NNW,336,4.0,5.0,88,0.00,,,0.00,0.000000,,2013-09-29 09:10:00,
2013-09-29 05:43:00,53.0,50.0,-100.00,NNW,336,4.0,5.0,88,0.00,,,0.00,0.000000,,2013-09-29 09:43:00,
2013-09-29 05:54:00,53.0,50.0,-100.00,NNW,336,4.0,5.0,88,0.00,,,0.00,0.000000,,2013-09-29 09:54:00,
2013-09-29 06:03:00,53.0,50.0,-100.00,NNW,336,4.0,5.0,88,0.00,,,0.00,0.000000,,2013-09-29 10:03:00,
2013-09-29 06:10:00,53.0,50.0,-100.00,North,352,3.0,5.0,89,0.00,,,0.00,0.000000,,2013-09-29 10:10:00,
2013-09-29 06:43:00,53.0,50.0,-100.00,North,352,3.0,5.0,89,0.00,,,0.00,0.000000,,2013-09-29 10:43:00,
2013-09-29 06:53:00,53.0,50.0,-100.00,North,352,3.0,5.0,89,0.00,,,0.00,0.000000,,2013-09-29 10:53:00,
2013-09-29 07:03:00,53.0,50.0,-100.00,North,352,3.0,5.0,89,0.00,,,0.00,0.000000,,2013-09-29 11:03:00,
2013-09-29 07:10:00,53.0,50.0,-100.00,NW,310,3.0,6.0,90,0.00,,,0.00,3.000000,,2013-09-29 11:10:00,
2013-09-29 07:42:00,53.0,50.0,-100.00,NW,310,3.0,6.0,90,0.00,,,0.00,3.000000,,2013-09-29 11:42:00,
2013-09-29 07:52:00,53.0,50.0,-100.00,NW,310,3.0,6.0,90,0.00,,,0.00,3.000000,,2013-09-29 11:52:00,
2013-09-29 08:01:00,53.0,50.0,-100.00,NW,310,3.0,6.0,90,0.00,,,0.00,3.000000,,2013-09-29 12:01:00,
2013-09-29 09:10:00,60.0,52.0,-100.00,NE,38,2.0,5.0,76,-99.99,,,0.00,221.000000,,2013-09-29 13:10:00,
2013-09-29 10:10:00,60.0,53.0,-100.00,NE,46,4.0,7.0,78,0.00,,,0.00,254.000000,,2013-09-29 14:10:00,
2013-09-29 10:43:00,60.0,53.0,-100.00,NE,46,4.0,7.0,78,0.00,,,0.00,254.000000,,2013-09-29 14:43:00,
2013-09-29 10:52:00,60.0,53.0,-100.00,NE,46,4.0,7.0,78,0.00,,,0.00,254.000000,,2013-09-29 14:52:00,
2013-09-29 11:02:00,60.0,53.0,-100.00,NE,46,4.0,7.0,78,0.00,,,0.00,254.000000,,2013-09-29 15:02:00,
2013-09-29 11:10:00,66.0,56.0,-100.00,NE,47,5.0,8.0,69,0.00,,,0.00,582.000000,,2013-09-29 15:10:00,
2013-09-29 11:45:00,66.0,56.0,-100.00,NE,47,5.0,8.0,69,0.00,,,0.00,582.000000,,2013-09-29 15:45:00,
2013-09-29 11:55:00,66.0,56.0,-100.00,NE,47,5.0,8.0,69,0.00,,,0.00,582.000000,,2013-09-29 15:55:00,
2013-09-29 12:05:00,66.0,56.0,-100.00,NE,47,5.0,8.0,69,0.00,,,0.00,582.000000,,2013-09-29 16:05:00,
2013-09-29 12:10:00,64.0,49.0,-100.00,NE,44,4.0,10.0,58,0.00,,,0.00,675.000000,,2013-09-29 16:10:00,
2013-09-29 12:44:00,64.0,49.0,-100.00,NE,44,4.0,10.0,58,0.00,,,0.00,675.000000,,2013-09-29 16:44:00,
2013-09-29 12:54:00,64.0,49.0,-100.00,NE,44,4.0,10.0,58,0.00,,,0.00,675.000000,,2013-09-29 16:54:00,
2013-09-29 13:03:00,64.0,49.0,-100.00,NE,44,4.0,10.0,58,0.00,,,0.00,675.000000,,2013-09-29 17:03:00,
2013-09-29 13:10:00,69.0,55.0,-100.00,NE,49,6.0,10.0,60,0.00,,,0.00,708.000000,,2013-09-29 17:10:00,
2013-09-29 13:43:00,69.0,55.0,-100.00,NE,49,6.0,10.0,60,0.00,,,0.00,708.000000,,2013-09-29 17:43:00,
2013-09-29 13:52:00,69.0,55.0,-100.00,NE,49,6.0,10.0,60,0.00,,,0.00,708.000000,,2013-09-29 17:52:00,
2013-09-29 14:02:00,69.0,55.0,-100.00,NE,49,6.0,10.0,60,0.00,,,0.00,708.000000,,2013-09-29 18:02:00,
2013-09-29 14:10:00,65.0,50.0,-100.00,NE,53,3.0,12.0,59,0.00,,,0.00,349.000000,,2013-09-29 18:10:00,
2013-09-29 14:42:00,65.0,50.0,-100.00,NE,53,3.0,12.0,59,0.00,,,0.00,349.000000,,2013-09-29 18:42:00,
2013-09-29 14:52:00,65.0,50.0,-100.00,NE,53,3.0,12.0,59,0.00,,,0.00,349.000000,,2013-09-29 18:52:00,
2013-09-29 15:02:00,65.0,50.0,-100.00,NE,53,3.0,12.0,59,0.00,,,0.00,349.000000,,2013-09-29 19:02:00,
2013-09-29 15:10:00,68.0,52.0,-100.00,NE,40,3.0,6.0,56,0.00,,,0.00,420.000000,,2013-09-29 19:10:00,
2013-09-29 15:42:00,68.0,52.0,-100.00,NE,40,3.0,6.0,56,0.00,,,0.00,420.000000,,2013-09-29 19:42:00,
2013-09-29 15:52:00,68.0,52.0,-100.00,NE,40,3.0,6.0,56,0.00,,,0.00,420.000000,,2013-09-29 19:52:00,
2013-09-29 16:02:00,68.0,52.0,-100.00,NE,40,3.0,6.0,56,0.00,,,0.00,420.000000,,2013-09-29 20:02:00,
2013-09-29 16:10:00,69.0,53.0,-100.00,NE,53,4.0,7.0,56,0.00,,,0.00,506.000000,,2013-09-29 20:10:00,
2013-09-29 16:43:00,69.0,53.0,-100.00,NE,53,4.0,7.0,56,0.00,,,0.00,506.000000,,2013-09-29 20:43:00,
2013-09-29 16:52:00,69.0,53.0,-100.00,NE,53,4.0,7.0,56,0.00,,,0.00,506.000000,,2013-09-29 20:52:00,
2013-09-29 17:02:00,69.0,53.0,-100.00,NE,53,4.0,7.0,56,0.00,,,0.00,506.000000,,2013-09-29 21:02:00,
2013-09-29 17:10:00,69.0,49.0,-100.00,North,1,4.0,6.0,49,0.00,,,0.00,362.000000,,2013-09-29 21:10:00,
2013-09-29 17:44:00,69.0,49.0,-100.00,North,1,4.0,6.0,49,0.00,,,0.00,362.000000,,2013-09-29 21:44:00,
2013-09-29 17:55:00,69.0,49.0,-100.00,North,1,4.0,6.0,49,0.00,,,0.00,362.000000,,2013-09-29 21:55:00,
2013-09-29 18:04:00,69.0,49.0,-100.00,North,1,4.0,6.0,49,0.00,,,0.00,362.000000,,2013-09-29 22:04:00,
2013-09-29 18:10:00,66.0,50.0,-100.00,North,1,1.0,7.0,57,0.00,,,0.00,172.000000,,2013-09-29 22:10:00,
2013-09-29 18:43:00,66.0,50.0,-100.00,North,1,1.0,7.0,57,0.00,,,0.00,172.000000,,2013-09-29 22:43:00,
2013-09-29 18:53:00,66.0,50.0,-100.00,North,1,1.0,7.0,57,0.00,,,0.00,172.000000,,2013-09-29 22:53:00,
2013-09-29 19:03:00,66.0,50.0,-100.00,North,1,1.0,7.0,57,0.00,,,0.00,172.000000,,2013-09-29 23:03:00,
2013-09-29 19:10:00,58.0,50.0,-100.00,North,1,2.0,2.0,76,0.00,,,0.00,7.000000,,2013-09-29 23:10:00,
2013-09-29 19:43:00,58.0,50.0,-100.00,North,1,2.0,2.0,76,0.00,,,0.00,7.000000,,2013-09-29 23:43:00,
2013-09-29 19:53:00,58.0,50.0,-100.00,North,1,2.0,2.0,76,0.00,,,0.00,7.000000,,2013-09-29 23:53:00,
2013-09-29 20:02:00,58.0,50.0,-100.00,North,1,2.0,2.0,76,0.00,,,0.00,7.000000,,2013-09-30 00:02:00,
2013-09-29 20:10:00,55.0,48.0,-100.00,North,3,2.0,8.0,76,0.00,,,0.00,0.000000,,2013-09-30 00:10:00,
2013-09-29 20:42:00,55.0,48.0,-100.00,North,3,2.0,8.0,76,0.00,,,0.00,0.000000,,2013-09-30 00:42:00,
2013-09-29 20:52:00,55.0,48.0,-100.00,North,3,2.0,8.0,76,0.00,,,0.00,0.000000,,2013-09-30 00:52:00,
2013-09-29 21:02:00,55.0,48.0,-100.00,North,3,2.0,8.0,76,0.00,,,0.00,0.000000,,2013-09-30 01:02:00,
2013-09-29 21:10:00,54.0,51.0,-100.00,North,9,4.0,6.0,88,0.00,,,0.00,0.000000,,2013-09-30 01:10:00,
2013-09-29 21:42:00,54.0,51.0,-100.00,North,9,4.0,6.0,88,0.00,,,0.00,0.000000,,2013-09-30 01:42:00,
2013-09-29 21:52:00,54.0,51.0,-100.00,North,9,4.0,6.0,88,0.00,,,0.00,0.000000,,2013-09-30 01:52:00,
2013-09-29 22:02:00,54.0,51.0,-100.00,North,9,4.0,6.0,88,0.00,,,0.00,0.000000,,2013-09-30 02:02:00,
2013-09-29 22:10:00,53.0,50.0,-100.00,NNE,17,4.0,7.0,90,0.00,,,0.00,0.000000,,2013-09-30 02:10:00,
2013-09-29 22:42:00,53.0,50.0,-100.00,NNE,17,4.0,7.0,90,0.00,,,0.00,0.000000,,2013-09-30 02:42:00,
2013-09-29 22:52:00,53.0,50.0,-100.00,NNE,17,4.0,7.0,90,0.00,,,0.00,0.000000,,2013-09-30 02:52:00,
2013-09-29 23:02:00,53.0,50.0,-100.00,NNE,17,4.0,7.0,90,0.00,,,0.00,0.000000,,2013-09-30 03:02:00,
2013-09-29 23:10:00,51.0,50.0,-100.00,East,92,2.0,4.0,98,0.00,,,0.00,0.000000,,2013-09-30 03:10:00,
2013-09-29 23:45:00,51.0,50.0,-100.00,East,92,2.0,4.0,98,0.00,,,0.00,0.000000,,2013-09-30 03:45:00,
2013-09-29 23:55:00,51.0,50.0,-100.00,East,92,2.0,4.0,98,0.00,,,0.00,0.000000,,2013-09-30 03:55:00,